Regional Weather Roundup
Issued by NWS Green Bay, WI

Home | Current Version | Previous Version | Text Only | Print | Product List | Glossary On
Versions: 1 2 3 4 5 6 7 8 9 10 11 12 13 14 15 16 17 18 19 20 21 22 23 24 25 26 27 28 29 30 31 32 33 34 35 36 37 38 39 40 41 42 43 44 45 46 47 48 49 50
219
ASUS43 KGRB 072111
RWRGRB

NORTH-CENTRAL AND NORTHEAST WISCONSIN REGIONAL WEATHER ROUNDUP
NATIONAL WEATHER SERVICE GREEN BAY WI
300 PM CST SUN FEB 07 2016

WIZ005-009-010>012-018-019-072200-
NORTH CENTRAL WISCONSIN

CITY           SKY/WX    TMP DP  RH WIND       PRES   REMARKS
IRONWOOD       CLOUDY    34  34 100 W9        29.44S
MANITOWISH WTR FLURRIES  33  32  96 SW9       29.47R
ARBOR VITAE    LGT SNOW  37  34  91 W8        29.49R
EAGLE RIVER    LGT SNOW  32  32  99 SW6       29.48S
LAND O LAKES   LGT SNOW  33  32  97 SW5       29.48S
RHINELANDER    CLOUDY    34  30  85 W10       29.50S
PHILLIPS       CLOUDY    35  29  81 SW7       29.50R
ANTIGO         CLOUDY    35  29  80 W12       29.53R
TOMAHAWK       CLOUDY    35  29  79 SW3       29.52R
MERRILL        CLOUDY    37  29  75 W9        29.54R
$$

WIZ013-073-072200-
NORTHEAST WISCONSIN

CITY           SKY/WX    TMP DP  RH WIND       PRES   REMARKS
IRON MOUNTAIN  CLOUDY    35  30  82 SW7       29.51R
MARINETTE      CLOUDY    39  28  65 SW7       29.57R
OCONTO         CLOUDY    39  31  73 SW6       29.58R
$$

WIZ017-030-035>037-045-072200-
CENTRAL WISCONSIN

CITY           SKY/WX    TMP DP  RH WIND       PRES   REMARKS
MEDFORD        CLOUDY    36  28  72 W15       29.53S
WAUSAU         CLOUDY    39  28  64 SW15G22   29.54R
MOSINEE        CLOUDY    37  28  70 SW12      29.57R
MARSHFIELD     CLOUDY    39  26  59 W13       29.55S
WISC RAPIDS    CLOUDY    41  26  55 W12       29.59S
STEVENS POINT  CLOUDY    38  27  65 W9        29.57S
WAUPACA        CLOUDY    42  29  61 W9        29.60R
SHAWANO        CLOUDY    41  30  65 SW7       29.57S
CLINTONVILLE   CLOUDY    39  28  65 W10       29.58S
WAUTOMA        CLOUDY    42  28  58 SW13      29.61R
$$

WIZ038-039-048-051-072200-
FOX VALLEY

CITY           SKY/WX    TMP DP  RH WIND       PRES   REMARKS
NWS GREEN BAY  CLOUDY    40  30  67 W10       29.59R
APPLETON       PTSUNNY   39  27  60 SW13      29.58R
OSHKOSH        MOSUNNY   41  29  62 SW8       29.60S
FOND DU LAC    SUNNY     41  30  65 SW10      29.62R
$$

WIZ022-050-052-072200-
EAST CENTRAL WISCONSIN

CITY           SKY/WX    TMP DP  RH WIND       PRES   REMARKS
EPHRAIM        CLOUDY    39  30  71 SW5       29.56S
STURGEON BAY   CLOUDY    39  28  65 S9        29.60S
MANITOWOC      CLOUDY    41  30  65 SW13      29.62R
SHEBOYGAN      PTSUNNY   40  30  67 W13       29.62R
$$

LMZ563-521-522-541>543-072200-
LAKESHORE

STATION/POSITION TIME  TEMP    WIND        PRES    VSBY  WAVE
                       AIR SEA DIR/SP/G                  HT/PER
                 (UTC) (F)     (DEG/KT/KT) (MB)    (MI)  (FT/S)
SHEBOYGAN LKSHOR 2100   43     250/ 14/ 17 1003.9R
KEWAUNEE LKSHORE 2000   41     240/  7/ 14 1001.5R
NORTHPORT PIER   2000   42     170/  3/  8 1001.0F
CHAMBERS ISLAND  2000   37     190/  6/ 11 1001.7R
MENOMINEE LKSHOR 2000   37     190/  6     1000.1R
$$




USA.gov is the U.S. government's official web portal to all federal, state and local government web resources and services.